Back to catalog

MESON-1

AliveScienceSSO
NORAD 59131·PAYLOAD·🇺🇸 United States

Launched Mar 4, 2024 from Vandenberg Space Force Base

Loading…

Next Passes (next 24 hours)

TLE

FreshSource: Space-Track

Epoch: Sep 14, 2026, 03:05 UTC

1 59131U 24043AK  26257.12882079  .00004491  00000-0  14801-3 0  9996
2 59131  97.5776  37.1549 0008463 288.5544  71.4778 15.31973105140697

Track MESON-1 in real time with AllMySat

Download on the App Store